Regional Weather Roundup
Issued by NWS Goodland, KS

Home | Current Version | Previous Version | Graphics & Text | Print | Product List | Glossary On
Versions: 1 2 3 4 5 6 7 8 9 10 11 12 13 14 15 16 17 18 19 20 21 22 23 24 25 26 27 28 29 30 31 32 33 34 35 36 37 38 39 40 41 42 43 44 45 46 47 48 49 50
000
ASUS43 KGLD 191959
RWRGLD

GOODLAND FORECAST AREA HOURLY WEATHER ROUNDUP
NATIONAL WEATHER SERVICE GOODLAND KS
200 PM MDT THU APR 19 2018

...OFFICIAL OBSERVATIONS...

CITY           SKY/WX    TMP DP  RH WIND       PRES   REMARKS
GOODLAND KS    SUNNY     61  28  28 S24G35    30.26F
HILL CITY KS     N/A     60  27  28 SE9G18    30.36F
IMPERIAL NEB   SUNNY     59  28  30 E20G29    30.28F
MCCOOK NEB     MOSUNNY   59  29  31 E15G26    30.32F
AKRON CO       CLOUDY    60  25  26 S29G41    30.19F
BURLINGTON CO  SUNNY     62  24  23 S31G43    30.25F
LIMON CO       CLOUDY    61  15  16 SE31G46   30.16F
$$

...UNOFFICIAL OBSERVATIONS...

CITY           SKY/WX    TMP DP  RH WIND       PRES   REMARKS
NORTON KS      SUNNY     59  27  29 E9        30.35
SHARON SPRINGS   N/A     63  29  27 SE15G33     N/A
KIT CARSON CO    N/A     60  27  28 MISG        N/A
YUMA CO        FAIR      59  25  27 SE23G35   30.22F
$$



USA.gov is the U.S. government's official web portal to all federal, state and local government web resources and services.